| time (UTC) | temp C | wind direction | speed KPH | gust KPH | rain 1hr cm | rain 24hr cm | rain mn cm | humidity % | barometer mb |
| 20260510011623 | 11 | 348 | 0.0 | 0.0 | 0.00 | 0.97 | 0.97 | 99 | 1005.8 |
| 20260510011119 | 11 | 342 | 0.0 | 1.6 | 0.00 | 0.97 | 0.97 | 99 | 1005.7 |
| 20260510010615 | 11 | 346 | 0.0 | 1.6 | 0.00 | 0.97 | 0.97 | 99 | 1005.6 |
| 20260510010113 | 11 | 337 | 0.0 | 3.2 | 0.00 | 0.97 | 0.97 | 99 | 1005.8 |
| 20260510005608 | 11 | 358 | 0.0 | 0.0 | 0.00 | 0.97 | 0.97 | 99 | 1005.6 |
| 20260510005106 | 11 | 358 | 0.0 | 0.0 | 0.00 | 0.97 | 0.97 | 99 | 1005.4 |
| 20260510004603 | 12 | 358 | 0.0 | 0.0 | 0.00 | 0.97 | 0.97 | 99 | 1005.6 |
| 20260510004101 | 12 | 358 | 0.0 | 0.0 | 0.00 | 0.97 | 0.97 | 99 | 1005.4 |
| 20260510003558 | 12 | 358 | 0.0 | 0.0 | 0.00 | 0.97 | 0.97 | 98 | 1005.3 |
| 20260510003053 | 12 | 358 | 0.0 | 0.0 | 0.00 | 0.97 | 0.97 | 98 | 1005.2 |
| 20260510002548 | 12 | 358 | 0.0 | 0.0 | 0.00 | 0.97 | 0.97 | 98 | 1005.1 |
| 20260510002046 | 12 | 358 | 0.0 | 0.0 | 0.00 | 0.97 | 0.97 | 97 | 1005.3 |
| 20260510001543 | 12 | 5 | 0.0 | 0.0 | 0.00 | 0.97 | 0.97 | 97 | 1005.3 |
| 20260510001042 | 13 | 1 | 0.0 | 0.0 | 0.00 | 0.97 | 0.97 | 97 | 1005.1 |
| 20260510000536 | 13 | 350 | 0.0 | 1.6 | 0.00 | 0.97 | 0.97 | 96 | 1005.1 |
| 20260510000033 | 13 | 355 | 0.0 | 0.0 | 0.00 | 0.97 | 0.97 | 95 | 1004.9 |
| 20260509235530 | 13 | 359 | 0.0 | 0.0 | 0.00 | 0.97 | 0.97 | 94 | 1004.9 |
| 20260509235027 | 13 | 353 | 0.0 | 1.6 | 0.00 | 0.97 | 0.97 | 94 | 1004.7 |
| 20260509234523 | 14 | 16 | 0.0 | 1.6 | 0.00 | 0.97 | 0.97 | 93 | 1004.9 |
| 20260509234021 | 15 | 16 | 1.6 | 1.6 | 0.00 | 0.97 | 0.97 | 92 | 1004.8 |
| 20260509233518 | 15 | 3 | 1.6 | 1.6 | 0.00 | 0.97 | 0.97 | 90 | 1004.8 |
| 20260509233015 | 15 | 1 | 0.0 | 3.2 | 0.00 | 0.97 | 0.97 | 89 | 1004.6 |
| 20260509232512 | 16 | 1 | 0.0 | 1.6 | 0.00 | 0.97 | 0.97 | 85 | 1004.6 |
| 20260509232009 | 17 | 14 | 1.6 | 3.2 | 0.00 | 0.97 | 0.97 | 83 | 1004.5 |
| 20260509231505 | 17 | 1 | 0.0 | 3.2 | 0.00 | 0.97 | 0.97 | 82 | 1004.6 |
| 20260509231003 | 17 | 348 | 3.2 | 3.2 | 0.00 | 0.97 | 0.97 | 82 | 1004.5 |
| 20260509230459 | 18 | 11 | 3.2 | 3.2 | 0.00 | 0.97 | 0.97 | 76 | 1004.5 |
| 20260509225956 | 18 | 3 | 0.0 | 0.0 | 0.00 | 0.97 | 0.97 | 74 | 1004.8 |
| 20260509225452 | 18 | 4 | 1.6 | 1.6 | 0.00 | 0.97 | 0.97 | 75 | 1004.7 |
| 20260509224948 | 18 | 355 | 0.0 | 1.6 | 0.00 | 0.97 | 0.97 | 76 | 1004.8 |
| 20260509224443 | 18 | 344 | 0.0 | 0.0 | 0.00 | 0.97 | 0.97 | 73 | 1005.0 |
| 20260509223940 | 18 | 342 | 0.0 | 0.0 | 0.00 | 0.97 | 0.97 | 73 | 1004.9 |
| 20260509223437 | 18 | 339 | 0.0 | 0.0 | 0.00 | 0.97 | 0.97 | 75 | 1004.8 |
| 20260509222935 | 17 | 338 | 0.0 | 0.0 | 0.00 | 0.97 | 0.97 | 77 | 1005.0 |
| 20260509222430 | 17 | 351 | 0.0 | 0.0 | 0.00 | 0.97 | 0.97 | 77 | 1004.9 |
| 20260509221926 | 17 | 352 | 0.0 | 1.6 | 0.00 | 0.97 | 0.97 | 76 | 1004.9 |
| 20260509221423 | 18 | 4 | 0.0 | 1.6 | 0.00 | 0.97 | 0.97 | 74 | 1005.0 |
| 20260509220918 | 18 | 318 | 0.0 | 1.6 | 0.00 | 0.97 | 0.97 | 74 | 1005.0 |
| 20260509220414 | 18 | 280 | 1.6 | 1.6 | 0.00 | 0.97 | 0.97 | 75 | 1004.9 |
| 20260509215911 | 17 | 1 | 0.0 | 1.6 | 0.00 | 0.97 | 0.97 | 76 | 1005.0 |
| 20260509215406 | 17 | 315 | 0.0 | 3.2 | 0.00 | 0.97 | 0.97 | 78 | 1004.8 |
| 20260509214904 | 17 | 349 | 1.6 | 1.6 | 0.00 | 0.97 | 0.97 | 81 | 1005.1 |
| 20260509214401 | 17 | 346 | 0.0 | 1.6 | 0.00 | 0.97 | 0.97 | 81 | 1005.2 |
| 20260509213858 | 17 | 330 | 0.0 | 4.8 | 0.00 | 0.97 | 0.97 | 76 | 1005.2 |
| 20260509213353 | 17 | 326 | 0.0 | 3.2 | 0.00 | 0.97 | 0.97 | 77 | 1005.2 |
| 20260509212851 | 17 | 345 | 0.0 | 1.6 | 0.00 | 0.97 | 0.97 | 79 | 1005.3 |
| 20260509212349 | 17 | 282 | 0.0 | 4.8 | 0.00 | 0.97 | 0.97 | 79 | 1005.1 |
| 20260509211844 | 17 | 352 | 0.0 | 3.2 | 0.00 | 0.97 | 0.97 | 79 | 1005.1 |
| 20260509211340 | 17 | 356 | 0.0 | 1.6 | 0.00 | 0.97 | 0.97 | 81 | 1005.5 |
| 20260509210837 | 16 | 9 | 1.6 | 3.2 | 0.00 | 0.97 | 0.97 | 85 | 1005.2 |
| 20260509210335 | 16 | 351 | 0.0 | 4.8 | 0.00 | 0.97 | 0.97 | 86 | 1005.5 |
| 20260509205834 | 15 | 335 | 1.6 | 1.6 | 0.00 | 0.97 | 0.97 | 86 | 1005.5 |
| 20260509205329 | 16 | 340 | 3.2 | 9.7 | 0.00 | 0.97 | 0.97 | 85 | 1005.6 |
| 20260509204826 | 16 | 343 | 1.6 | 3.2 | 0.00 | 0.97 | 0.97 | 86 | 1005.8 |
| 20260509204322 | 16 | 321 | 1.6 | 3.2 | 0.00 | 0.97 | 0.97 | 85 | 1005.6 |
| 20260509203818 | 16 | 354 | 4.8 | 8.0 | 0.00 | 0.97 | 0.97 | 83 | 1005.7 |
| 20260509203316 | 16 | 343 | 3.2 | 8.0 | 0.00 | 0.97 | 0.97 | 88 | 1005.5 |
| 20260509202812 | 15 | 358 | 3.2 | 8.0 | 0.00 | 0.97 | 0.97 | 90 | 1005.7 |
| 20260509202308 | 15 | 333 | 0.0 | 4.8 | 0.00 | 0.97 | 0.97 | 93 | 1005.7 |
| 20260509201807 | 15 | 340 | 3.2 | 3.2 | 0.00 | 0.97 | 0.97 | 96 | 1005.8 |
| 20260509201304 | 14 | 333 | 1.6 | 1.6 | 0.00 | 0.97 | 0.97 | 95 | 1005.7 |
| 20260509200801 | 14 | 324 | 0.0 | 1.6 | 0.00 | 0.97 | 0.97 | 96 | 1006.0 |
| 20260509200256 | 13 | 340 | 0.0 | 1.6 | 0.00 | 0.97 | 0.97 | 96 | 1006.1 |
| 20260509195752 | 13 | 344 | 1.6 | 1.6 | 0.00 | 0.97 | 0.97 | 96 | 1005.9 |
| 20260509195248 | 13 | 342 | 0.0 | 0.0 | 0.00 | 0.97 | 0.97 | 97 | 1005.9 |
| 20260509194742 | 13 | 311 | 4.8 | 8.0 | 0.00 | 0.97 | 0.97 | 97 | 1006.2 |
| 20260509194239 | 13 | 340 | 0.0 | 4.8 | 0.00 | 0.97 | 0.97 | 97 | 1006.3 |
| 20260509193736 | 13 | 334 | 0.0 | 3.2 | 0.00 | 0.97 | 0.97 | 97 | 1006.3 |
| 20260509193235 | 13 | 14 | 3.2 | 3.2 | 0.00 | 0.97 | 0.97 | 98 | 1006.4 |
| 20260509192732 | 13 | 356 | 1.6 | 1.6 | 0.13 | 0.97 | 0.97 | 98 | 1006.4 |
| 20260509192227 | 13 | 221 | 4.8 | 4.8 | 0.13 | 0.97 | 0.97 | 97 | 1006.4 |
| 20260509191722 | 13 | 348 | 0.0 | 0.0 | 0.00 | 0.94 | 0.94 | 97 | 1006.4 |
| 20260509191219 | 13 | 222 | 4.8 | 4.8 | 0.18 | 0.94 | 0.94 | 96 | 1006.2 |
| 20260509190715 | 13 | 347 | 0.0 | 1.6 | 0.30 | 0.94 | 0.94 | 97 | 1006.2 |
| 20260509190212 | 13 | 244 | 3.2 | 4.8 | 0.13 | 0.91 | 0.91 | 96 | 1006.4 |
| 20260509185710 | 13 | 293 | 1.6 | 3.2 | 0.00 | 0.89 | 0.89 | 96 | 1006.4 |
| 20260509185206 | 13 | 340 | 0.0 | 1.6 | 0.00 | 0.89 | 0.89 | 97 | 1006.2 |
| 20260509184704 | 13 | 315 | 3.2 | 3.2 | 0.00 | 0.89 | 0.89 | 97 | 1006.3 |
| 20260509184201 | 13 | 331 | 0.0 | 3.2 | 0.00 | 0.89 | 0.89 | 98 | 1006.6 |
| 20260509183657 | 13 | 347 | 1.6 | 1.6 | 0.00 | 0.89 | 0.89 | 98 | 1006.3 |
| 20260509183152 | 12 | 335 | 1.6 | 1.6 | 0.00 | 0.89 | 0.89 | 98 | 1006.4 |
| 20260509182648 | 12 | 317 | 0.0 | 0.0 | 0.00 | 0.89 | 0.89 | 97 | 1006.5 |
| 20260509182145 | 12 | 287 | 1.6 | 3.2 | 0.00 | 0.89 | 0.89 | 97 | 1006.6 |
| 20260509181643 | 12 | 342 | 1.6 | 3.2 | 0.18 | 0.89 | 0.89 | 98 | 1006.3 |
| 20260509181141 | 12 | 341 | 0.0 | 0.0 | 0.18 | 0.89 | 0.89 | 98 | 1006.4 |
| 20260509180637 | 12 | 309 | 0.0 | 1.6 | 0.18 | 0.86 | 0.86 | 98 | 1006.6 |
| 20260509180134 | 12 | 336 | 0.0 | 0.0 | 0.18 | 0.86 | 0.86 | 98 | 1006.6 |
| 20260509175629 | 12 | 337 | 0.0 | 0.0 | 0.00 | 0.84 | 0.84 | 98 | 1006.6 |
| 20260509175127 | 12 | 347 | 0.0 | 1.6 | 0.13 | 0.84 | 0.84 | 98 | 1006.6 |
| 20260509174622 | 12 | 327 | 0.0 | 0.0 | 0.00 | 0.81 | 0.81 | 98 | 1006.6 |
| 20260509174117 | 12 | 344 | 0.0 | 0.0 | 0.18 | 0.81 | 0.81 | 98 | 1006.5 |
| 20260509173613 | 12 | 343 | 1.6 | 3.2 | 0.18 | 0.81 | 0.81 | 98 | 1006.6 |
| 20260509173109 | 12 | 346 | 0.0 | 1.6 | 0.00 | 0.79 | 0.79 | 99 | 1006.2 |
| 20260509172607 | 12 | 346 | 0.0 | 1.6 | 0.00 | 0.79 | 0.79 | 98 | 1006.5 |
| 20260509172102 | 12 | 37 | 4.8 | 4.8 | 0.00 | 0.79 | 0.79 | 98 | 1006.2 |
| 20260509171558 | 12 | 353 | 0.0 | 0.0 | 0.00 | 0.79 | 0.79 | 98 | 1006.5 |
| 20260509171055 | 12 | 343 | 0.0 | 0.0 | 0.13 | 0.79 | 0.79 | 98 | 1006.3 |
| 20260509170551 | 12 | 354 | 0.0 | 0.0 | 0.13 | 0.79 | 0.79 | 97 | 1006.5 |
| 20260509170047 | 12 | 351 | 0.0 | 0.0 | 0.00 | 0.76 | 0.76 | 98 | 1006.6 |
| 20260509165546 | 11 | 357 | 0.0 | 0.0 | 0.00 | 0.76 | 0.76 | 97 | 1006.4 |
| 20260509165041 | 11 | 5 | 0.0 | 0.0 | 0.00 | 0.76 | 0.76 | 98 | 1006.5 |
| 20260509164537 | 11 | 4 | 0.0 | 0.0 | 0.18 | 0.76 | 0.76 | 98 | 1006.4 |
| 20260509164033 | 11 | 347 | 0.0 | 0.0 | 0.18 | 0.76 | 0.76 | 99 | 1006.5 |
| 20260509163531 | 12 | 352 | 0.0 | 0.0 | 0.13 | 0.74 | 0.74 | 99 | 1006.6 |
| 20260509163026 | 11 | 348 | 0.0 | 0.0 | 0.30 | 0.74 | 0.74 | 99 | 1006.6 |
| 20260509162524 | 11 | 347 | 0.0 | 0.0 | 0.30 | 0.71 | 0.71 | 98 | 1006.4 |
| 20260509162019 | 11 | 351 | 0.0 | 1.6 | 0.30 | 0.69 | 0.69 | 98 | 1006.5 |
| 20260509161516 | 12 | 358 | 0.0 | 0.0 | 0.30 | 0.66 | 0.66 | 98 | 1006.8 |
| 20260509161011 | 11 | 346 | 0.0 | 0.0 | 0.30 | 0.64 | 0.64 | 98 | 1006.8 |
| 20260509160507 | 12 | 10 | 0.0 | 0.0 | 0.18 | 0.61 | 0.61 | 97 | 1006.8 |
| 20260509160003 | 12 | 350 | 0.0 | 0.0 | 0.18 | 0.58 | 0.58 | 97 | 1006.7 |
| 20260509155459 | 11 | 346 | 0.0 | 0.0 | 0.18 | 0.58 | 0.58 | 98 | 1007.0 |
| 20260509154955 | 11 | 356 | 0.0 | 0.0 | 0.13 | 0.56 | 0.56 | 97 | 1006.8 |
| 20260509154451 | 11 | 355 | 0.0 | 0.0 | 0.13 | 0.56 | 0.56 | 98 | 1006.8 |
| 20260509153949 | 11 | 338 | 0.0 | 1.6 | 0.00 | 0.53 | 0.53 | 98 | 1007.0 |
| 20260509153446 | 11 | 355 | 0.0 | 1.6 | 0.00 | 0.53 | 0.53 | 99 | 1007.0 |
| 20260509152943 | 11 | 37 | 1.6 | 3.2 | 0.00 | 0.53 | 0.53 | 99 | 1007.3 |
| 20260509152438 | 11 | 356 | 0.0 | 0.0 | 0.00 | 0.53 | 0.53 | 99 | 1007.2 |
| 20260509151936 | 11 | 358 | 0.0 | 3.2 | 0.18 | 0.53 | 0.53 | 99 | 1007.1 |
| 20260509151432 | 11 | 1 | 0.0 | 1.6 | 0.18 | 0.53 | 0.53 | 99 | 1007.3 |
| 20260509150930 | 11 | 35 | 3.2 | 4.8 | 0.00 | 0.51 | 0.51 | 99 | 1007.3 |
| 20260509150427 | 11 | 41 | 1.6 | 3.2 | 0.00 | 0.51 | 0.51 | 99 | 1007.1 |
| 20260509145925 | 11 | 351 | 0.0 | 1.6 | 0.13 | 0.51 | 0.51 | 99 | 1007.1 |
| 20260509145425 | 11 | 13 | 1.6 | 3.2 | 0.13 | 0.51 | 0.51 | 99 | 1007.4 |
| 20260509144921 | 11 | 1 | 0.0 | 1.6 | 0.00 | 0.48 | 0.48 | 99 | 1007.1 |
| 20260509144418 | 11 | 347 | 0.0 | 0.0 | 0.00 | 0.48 | 0.48 | 99 | 1007.5 |
| 20260509143915 | 10 | 337 | 0.0 | 1.6 | 0.18 | 0.48 | 0.48 | 99 | 1007.5 |
| 20260509143413 | 10 | 352 | 0.0 | 1.6 | 0.13 | 0.46 | 0.46 | 99 | 1007.5 |
| 20260509142909 | 10 | 31 | 0.0 | 1.6 | 0.13 | 0.46 | 0.46 | 99 | 1007.6 |
| 20260509142405 | 10 | 5 | 0.0 | 1.6 | 0.00 | 0.43 | 0.43 | 99 | 1007.6 |
| 20260509141901 | 10 | 354 | 0.0 | 0.0 | 0.18 | 0.43 | 0.43 | 99 | 1007.3 |
| 20260509141358 | 10 | 73 | 3.2 | 3.2 | 0.00 | 0.41 | 0.41 | 99 | 1007.5 |
| 20260509140854 | 10 | 358 | 0.0 | 3.2 | 0.13 | 0.41 | 0.41 | 99 | 1007.4 |
| 20260509140351 | 10 | 4 | 0.0 | 0.0 | 0.13 | 0.41 | 0.41 | 99 | 1007.4 |
| 20260509135849 | 10 | 352 | 0.0 | 0.0 | 0.00 | 0.38 | 0.38 | 99 | 1007.6 |
| 20260509135347 | 10 | 8 | 0.0 | 1.6 | 0.18 | 0.38 | 0.38 | 99 | 1007.5 |
| 20260509134844 | 10 | 354 | 0.0 | 0.0 | 0.18 | 0.38 | 0.38 | 99 | 1007.5 |
| 20260509134341 | 10 | 6 | 0.0 | 1.6 | 0.13 | 0.36 | 0.36 | 99 | 1007.5 |
| 20260509133837 | 10 | 348 | 0.0 | 1.6 | 0.00 | 0.33 | 0.33 | 99 | 1007.8 |
| 20260509133335 | 10 | 353 | 0.0 | 1.6 | 0.18 | 0.33 | 0.33 | 99 | 1007.7 |
| 20260509132834 | 10 | 345 | 0.0 | 0.0 | 0.18 | 0.33 | 0.33 | 99 | 1007.8 |
| 20260509132331 | 10 | 347 | 0.0 | 0.0 | 0.00 | 0.30 | 0.30 | 99 | 1007.6 |
| 20260509131828 | 10 | 355 | 0.0 | 0.0 | 0.13 | 0.30 | 0.30 | 99 | 1007.8 |
| 20260509131325 | 10 | 34 | 1.6 | 3.2 | 0.13 | 0.30 | 0.30 | 99 | 1007.8 |
| 20260509130821 | 10 | 357 | 0.0 | 1.6 | 0.00 | 0.28 | 0.28 | 99 | 1007.8 |
| 20260509130317 | 10 | 357 | 0.0 | 0.0 | 0.00 | 0.28 | 0.28 | 99 | 1007.8 |
| 20260509125814 | 10 | 355 | 0.0 | 3.2 | 0.00 | 0.28 | 0.28 | 99 | 1007.9 |
| 20260509125310 | 10 | 349 | 0.0 | 0.0 | 0.00 | 0.28 | 0.28 | 99 | 1007.8 |
| 20260509124807 | 10 | 36 | 1.6 | 3.2 | 0.00 | 0.28 | 0.28 | 99 | 1007.9 |
| 20260509124303 | 10 | 3 | 0.0 | 0.0 | 0.18 | 0.28 | 0.28 | 99 | 1007.9 |
| 20260509123802 | 10 | 10 | 0.0 | 0.0 | 0.18 | 0.28 | 0.28 | 99 | 1008.0 |
| 20260509123259 | 10 | 349 | 0.0 | 1.6 | 0.00 | 0.25 | 0.25 | 99 | 1008.1 |
| 20260509122754 | 10 | 350 | 0.0 | 0.0 | 0.00 | 0.25 | 0.25 | 99 | 1008.3 |
| 20260509122252 | 10 | 14 | 0.0 | 0.0 | 0.00 | 0.25 | 0.25 | 99 | 1008.1 |
| 20260509121748 | 10 | 354 | 0.0 | 0.0 | 0.00 | 0.25 | 0.25 | 99 | 1008.2 |
| 20260509121245 | 10 | 349 | 0.0 | 0.0 | 0.00 | 0.25 | 0.25 | 99 | 1008.2 |
| 20260509120744 | 10 | 344 | 0.0 | 0.0 | 0.00 | 0.25 | 0.25 | 99 | 1008.1 |
| 20260509120241 | 10 | 359 | 0.0 | 0.0 | 0.00 | 0.25 | 0.25 | 99 | 1008.2 |
| 20260509115739 | 10 | 352 | 0.0 | 0.0 | 0.00 | 0.25 | 0.25 | 99 | 1008.1 |
| 20260509115235 | 10 | 351 | 0.0 | 0.0 | 0.00 | 0.25 | 0.25 | 99 | 1008.2 |
| 20260509114734 | 10 | 339 | 0.0 | 0.0 | 0.18 | 0.25 | 0.25 | 99 | 1008.1 |
| 20260509114232 | 10 | 352 | 0.0 | 0.0 | 0.18 | 0.25 | 0.25 | 99 | 1008.1 |
| 20260509113731 | 10 | 348 | 0.0 | 0.0 | 0.00 | 0.23 | 0.23 | 99 | 1007.9 |
| 20260509113228 | 10 | 353 | 0.0 | 0.0 | 0.00 | 0.23 | 0.23 | 99 | 1008.1 |
| 20260509112724 | 10 | 357 | 0.0 | 0.0 | 0.00 | 0.23 | 0.23 | 99 | 1008.1 |
| 20260509112222 | 10 | 347 | 0.0 | 0.0 | 0.00 | 0.23 | 0.23 | 99 | 1008.0 |
| 20260509111718 | 10 | 350 | 0.0 | 0.0 | 0.00 | 0.23 | 0.23 | 99 | 1008.1 |
| 20260509111215 | 10 | 341 | 0.0 | 0.0 | 0.00 | 0.23 | 0.23 | 99 | 1008.0 |
| 20260509110713 | 10 | 354 | 0.0 | 0.0 | 0.00 | 0.23 | 0.23 | 99 | 1008.0 |
| 20260509110209 | 10 | 345 | 0.0 | 0.0 | 0.00 | 0.23 | 0.23 | 99 | 1008.1 |
| 20260509105708 | 10 | 352 | 0.0 | 0.0 | 0.00 | 0.23 | 0.23 | 99 | 1008.1 |
| 20260509105204 | 10 | 353 | 0.0 | 0.0 | 0.13 | 0.23 | 0.23 | 99 | 1008.4 |
| 20260509104701 | 9 | 349 | 0.0 | 0.0 | 0.13 | 0.23 | 0.23 | 99 | 1008.1 |
| 20260509104158 | 9 | 342 | 0.0 | 0.0 | 0.00 | 0.20 | 0.20 | 99 | 1008.1 |
| 20260509103656 | 9 | 351 | 0.0 | 0.0 | 0.00 | 0.20 | 0.20 | 99 | 1007.9 |
| 20260509103154 | 9 | 352 | 0.0 | 0.0 | 0.00 | 0.20 | 0.20 | 99 | 1008.1 |
| 20260509102652 | 9 | 352 | 0.0 | 0.0 | 0.00 | 0.20 | 0.20 | 99 | 1008.1 |
| 20260509102148 | 9 | 344 | 0.0 | 0.0 | 0.00 | 0.20 | 0.20 | 99 | 1008.0 |
| 20260509101644 | 9 | 347 | 0.0 | 0.0 | 0.00 | 0.20 | 0.20 | 99 | 1008.0 |
| 20260509101141 | 9 | 345 | 0.0 | 0.0 | 0.00 | 0.20 | 0.20 | 99 | 1007.9 |
| 20260509100638 | 9 | 356 | 0.0 | 0.0 | 0.18 | 0.20 | 0.20 | 99 | 1007.8 |
| 20260509100136 | 9 | 352 | 0.0 | 0.0 | 0.18 | 0.20 | 0.20 | 99 | 1007.8 |
| 20260509095632 | 9 | 354 | 0.0 | 0.0 | 0.00 | 0.18 | 0.18 | 99 | 1007.9 |
| 20260509095130 | 9 | 355 | 0.0 | 1.6 | 0.00 | 0.18 | 0.18 | 99 | 1008.0 |
| 20260509094626 | 9 | 352 | 0.0 | 0.0 | 0.00 | 0.18 | 0.18 | 99 | 1008.0 |
| 20260509094123 | 9 | 359 | 0.0 | 1.6 | 0.00 | 0.18 | 0.18 | 99 | 1007.8 |
| 20260509093622 | 9 | 84 | 1.6 | 3.2 | 0.00 | 0.18 | 0.18 | 99 | 1007.8 |
| 20260509093118 | 9 | 9 | 0.0 | 3.2 | 0.00 | 0.18 | 0.18 | 99 | 1008.0 |
| 20260509092616 | 10 | 353 | 0.0 | 1.6 | 0.00 | 0.18 | 0.18 | 99 | 1008.2 |
| 20260509092115 | 10 | 3 | 1.6 | 3.2 | 0.00 | 0.18 | 0.18 | 99 | 1008.0 |
| 20260509091612 | 9 | 356 | 0.0 | 0.0 | 0.00 | 0.18 | 0.18 | 99 | 1008.3 |
| 20260509091108 | 9 | 359 | 0.0 | 0.0 | 0.00 | 0.18 | 0.18 | 99 | 1008.3 |
| 20260509090606 | 9 | 354 | 0.0 | 0.0 | 0.00 | 0.18 | 0.18 | 99 | 1008.3 |
| 20260509085601 | 9 | 356 | 0.0 | 1.6 | 0.00 | 0.18 | 0.18 | 99 | 1008.5 |
| 20260509085056 | 9 | 346 | 0.0 | 0.0 | 0.00 | 0.18 | 0.18 | 99 | 1008.4 |
| 20260509084554 | 9 | 22 | 1.6 | 1.6 | 0.00 | 0.18 | 0.18 | 99 | 1008.1 |
| 20260509084051 | 9 | 5 | 1.6 | 1.6 | 0.00 | 0.18 | 0.18 | 99 | 1008.3 |
| 20260509083548 | 10 | 347 | 0.0 | 0.0 | 0.00 | 0.18 | 0.18 | 99 | 1008.3 |
| 20260509083044 | 10 | 337 | 0.0 | 0.0 | 0.00 | 0.18 | 0.18 | 99 | 1008.3 |
| 20260509082542 | 10 | 9 | 0.0 | 0.0 | 0.00 | 0.18 | 0.18 | 99 | 1008.1 |
| 20260509082039 | 10 | 2 | 0.0 | 0.0 | 0.00 | 0.18 | 0.18 | 99 | 1008.1 |
| 20260509081536 | 10 | 350 | 0.0 | 0.0 | 0.00 | 0.18 | 0.18 | 99 | 1008.2 |
| 20260509081033 | 10 | 9 | 0.0 | 1.6 | 0.00 | 0.18 | 0.18 | 99 | 1008.3 |
| 20260509080531 | 10 | 30 | 0.0 | 1.6 | 0.00 | 0.18 | 0.18 | 99 | 1008.4 |
| 20260509080029 | 10 | 15 | 0.0 | 3.2 | 0.00 | 0.18 | 0.18 | 99 | 1008.3 |
| 20260509075525 | 10 | 14 | 1.6 | 3.2 | 0.00 | 0.18 | 0.18 | 99 | 1008.4 |
| 20260509075024 | 10 | 358 | 0.0 | 0.0 | 0.00 | 0.18 | 0.18 | 99 | 1008.1 |
| 20260509074521 | 10 | 6 | 0.0 | 1.6 | 0.00 | 0.18 | 0.18 | 99 | 1008.2 |
| 20260509074017 | 10 | 9 | 0.0 | 0.0 | 0.00 | 0.18 | 0.18 | 99 | 1008.3 |
| 20260509073514 | 10 | 354 | 0.0 | 1.6 | 0.00 | 0.18 | 0.18 | 99 | 1008.3 |
| 20260509073010 | 10 | 2 | 0.0 | 3.2 | 0.00 | 0.18 | 0.18 | 99 | 1008.5 |
| 20260509072507 | 10 | 10 | 0.0 | 0.0 | 0.00 | 0.18 | 0.18 | 99 | 1008.5 |
| 20260509072003 | 10 | 357 | 0.0 | 3.2 | 0.00 | 0.18 | 0.18 | 99 | 1008.5 |
| 20260509071500 | 10 | 4 | 0.0 | 1.6 | 0.13 | 0.18 | 0.18 | 99 | 1008.5 |
| 20260509070958 | 10 | 357 | 0.0 | 1.6 | 0.13 | 0.18 | 0.18 | 99 | 1008.7 |
| 20260509070455 | 10 | 356 | 0.0 | 0.0 | 0.00 | 0.15 | 0.15 | 99 | 1008.6 |
| 20260509065950 | 9 | 359 | 0.0 | 0.0 | 0.00 | 0.15 | 0.15 | 99 | 1008.8 |
| 20260509065446 | 9 | 359 | 0.0 | 0.0 | 0.00 | 0.15 | 0.15 | 99 | 1008.9 |
| 20260509064942 | 9 | 2 | 0.0 | 0.0 | 0.00 | 0.15 | 0.15 | 99 | 1009.0 |
| 20260509064441 | 10 | 356 | 0.0 | 0.0 | 0.18 | 0.15 | 0.15 | 99 | 1008.9 |
| 20260509063938 | 10 | 348 | 0.0 | 0.0 | 0.18 | 0.15 | 0.15 | 99 | 1009.3 |
| 20260509063433 | 9 | 347 | 0.0 | 0.0 | 0.00 | 0.13 | 0.13 | 99 | 1009.3 |
| 20260509062930 | 9 | 348 | 0.0 | 0.0 | 0.00 | 0.13 | 0.13 | 99 | 1009.2 |
| 20260509062428 | 9 | 347 | 0.0 | 0.0 | 0.13 | 0.13 | 0.13 | 99 | 1009.3 |
| 20260509061925 | 10 | 346 | 0.0 | 0.0 | 0.13 | 0.13 | 0.13 | 99 | 1009.3 |
| 20260509061423 | 10 | 352 | 0.0 | 0.0 | 0.18 | 0.10 | 0.10 | 99 | 1009.4 |
| 20260509060919 | 9 | 358 | 0.0 | 0.0 | 0.18 | 0.10 | 0.10 | 99 | 1009.5 |
| 20260509060417 | 9 | 356 | 0.0 | 0.0 | 0.00 | 0.08 | 0.08 | 99 | 1009.6 |
| 20260509055912 | 10 | 355 | 0.0 | 0.0 | 0.00 | 0.08 | 0.08 | 99 | 1009.5 |
| 20260509055407 | 10 | 350 | 0.0 | 0.0 | 0.13 | 0.08 | 0.08 | 99 | 1009.6 |
| 20260509054905 | 10 | 352 | 0.0 | 0.0 | 0.00 | 0.05 | 0.05 | 99 | 1009.7 |
| 20260509054401 | 10 | 351 | 0.0 | 0.0 | 0.00 | 0.05 | 0.05 | 99 | 1009.5 |
| 20260509053859 | 10 | 346 | 0.0 | 0.0 | 0.00 | 0.05 | 0.05 | 99 | 1009.6 |
| 20260509053356 | 10 | 346 | 0.0 | 0.0 | 0.00 | 0.05 | 0.05 | 99 | 1009.8 |
| 20260509052855 | 10 | 346 | 0.0 | 0.0 | 0.00 | 0.05 | 0.05 | 99 | 1009.8 |
| 20260509052352 | 10 | 344 | 0.0 | 0.0 | 0.00 | 0.05 | 0.05 | 99 | 1009.7 |
| 20260509051849 | 10 | 350 | 0.0 | 0.0 | 0.00 | 0.05 | 0.05 | 99 | 1009.5 |
| 20260509051347 | 10 | 351 | 0.0 | 0.0 | 0.00 | 0.05 | 0.05 | 99 | 1009.7 |
| 20260509050844 | 10 | 341 | 0.0 | 0.0 | 0.00 | 0.05 | 0.05 | 99 | 1009.6 |
| 20260509050341 | 10 | 342 | 0.0 | 0.0 | 0.18 | 0.05 | 0.05 | 99 | 1009.5 |
| 20260509045837 | 10 | 342 | 0.0 | 0.0 | 0.18 | 0.05 | 0.05 | 99 | 1009.6 |
| 20260509045334 | 10 | 342 | 0.0 | 0.0 | 0.00 | 0.03 | 0.03 | 99 | 1009.8 |
| 20260509044831 | 10 | 341 | 0.0 | 0.0 | 0.00 | 0.03 | 0.03 | 99 | 1009.8 |
| 20260509044329 | 10 | 342 | 0.0 | 0.0 | 0.00 | 0.03 | 0.03 | 99 | 1009.8 |
| 20260509043825 | 10 | 342 | 0.0 | 0.0 | 0.00 | 0.03 | 0.03 | 99 | 1009.7 |
| 20260509043321 | 10 | 346 | 0.0 | 0.0 | 0.00 | 0.03 | 0.03 | 99 | 1009.9 |
| 20260509042817 | 10 | 337 | 0.0 | 0.0 | 0.00 | 0.03 | 0.03 | 99 | 1009.8 |
| 20260509042314 | 10 | 339 | 0.0 | 0.0 | 0.00 | 0.03 | 0.03 | 99 | 1009.8 |
| 20260509041811 | 10 | 340 | 0.0 | 0.0 | 0.00 | 0.03 | 0.03 | 99 | 1009.7 |
| 20260509041308 | 10 | 344 | 0.0 | 0.0 | 0.13 | 0.03 | 0.03 | 99 | 1009.8 |
| 20260509040806 | 10 | 347 | 0.0 | 0.0 | 0.13 | 0.03 | 0.03 | 99 | 1009.8 |
| 20260509040303 | 10 | 350 | 0.0 | 0.0 | 0.00 | 0.00 | 0.00 | 99 | 1009.7 |
| 20260509035800 | 10 | 353 | 0.0 | 0.0 | 0.00 | 0.53 | 0.53 | 99 | 1009.6 |
| 20260509035257 | 10 | 356 | 0.0 | 0.0 | 0.18 | 0.53 | 0.53 | 99 | 1009.5 |
| 20260509034753 | 10 | 355 | 0.0 | 0.0 | 0.18 | 0.53 | 0.53 | 99 | 1009.6 |
| 20260509034251 | 10 | 8 | 0.0 | 0.0 | 0.00 | 0.51 | 0.51 | 99 | 1009.6 |
| 20260509033748 | 10 | 354 | 0.0 | 0.0 | 0.00 | 0.51 | 0.51 | 99 | 1009.7 |
| 20260509033245 | 10 | 1 | 0.0 | 0.0 | 0.00 | 0.51 | 0.51 | 99 | 1009.8 |
| 20260509032742 | 10 | 353 | 0.0 | 0.0 | 0.00 | 0.51 | 0.51 | 99 | 1009.9 |
| 20260509032239 | 10 | 4 | 0.0 | 0.0 | 0.00 | 0.51 | 0.51 | 99 | 1009.9 |
| 20260509031737 | 10 | 9 | 0.0 | 0.0 | 0.00 | 0.51 | 0.51 | 99 | 1009.7 |
| 20260509031234 | 10 | 3 | 0.0 | 3.2 | 0.00 | 0.51 | 0.51 | 99 | 1009.8 |
| 20260509030732 | 10 | 333 | 1.6 | 3.2 | 0.00 | 0.51 | 0.51 | 99 | 1009.7 |
| 20260509030229 | 10 | 344 | 0.0 | 0.0 | 0.00 | 0.51 | 0.51 | 99 | 1009.9 |
| 20260509025726 | 10 | 348 | 0.0 | 0.0 | 0.00 | 0.51 | 0.51 | 99 | 1009.9 |
| 20260509025221 | 10 | 345 | 0.0 | 0.0 | 0.13 | 0.51 | 0.51 | 99 | 1010.0 |
| 20260509024717 | 10 | 349 | 0.0 | 0.0 | 0.13 | 0.51 | 0.51 | 99 | 1009.9 |
| 20260509024213 | 10 | 342 | 0.0 | 0.0 | 0.00 | 0.48 | 0.48 | 99 | 1010.0 |
| 20260509023711 | 10 | 347 | 1.6 | 1.6 | 0.00 | 0.48 | 0.48 | 99 | 1010.0 |
| 20260509023208 | 10 | 341 | 0.0 | 1.6 | 0.00 | 0.48 | 0.48 | 99 | 1010.0 |
| 20260509022703 | 10 | 350 | 0.0 | 0.0 | 0.00 | 0.48 | 0.48 | 99 | 1009.8 |
| 20260509022202 | 10 | 352 | 0.0 | 0.0 | 0.00 | 0.48 | 0.48 | 99 | 1009.9 |
| 20260509021658 | 10 | 359 | 0.0 | 0.0 | 0.18 | 0.48 | 0.48 | 99 | 1009.7 |
| 20260509021156 | 10 | 356 | 0.0 | 0.0 | 0.36 | 0.48 | 0.48 | 99 | 1009.9 |
| 20260509020654 | 10 | 345 | 0.0 | 0.0 | 0.30 | 0.46 | 0.46 | 99 | 1009.8 |
| 20260509020150 | 10 | 0 | 0.0 | 0.0 | 0.13 | 0.43 | 0.43 | 99 | 1009.6 |
| 20260509015649 | 10 | 0 | 0.0 | 0.0 | 0.00 | 0.41 | 0.41 | 99 | 1009.7 |
| 20260509015146 | 10 | 0 | 0.0 | 0.0 | 0.00 | 0.41 | 0.41 | 99 | 1009.7 |
| 20260509014643 | 10 | 0 | 0.0 | 0.0 | 0.00 | 0.41 | 0.41 | 99 | 1009.6 |
| 20260509014139 | 10 | 0 | 0.0 | 0.0 | 0.00 | 0.41 | 0.41 | 99 | 1009.3 |
| 20260509013636 | 10 | 0 | 0.0 | 0.0 | 0.00 | 0.41 | 0.41 | 99 | 1009.3 |
| 20260509013132 | 10 | 0 | 0.0 | 0.0 | 0.00 | 0.41 | 0.41 | 99 | 1009.2 |
| 20260509012629 | 10 | 0 | 0.0 | 0.0 | 0.00 | 0.41 | 0.41 | 99 | 1009.4 |
| 20260509012126 | 10 | 0 | 0.0 | 0.0 | 0.00 | 0.41 | 0.41 | 99 | 1009.2 |